Danbury, CT

1:16 PM EDT on March 30, 2017 (GMT -0400)
Danbury Municipal

Weather History for KDXR - June, 2013

Change the Weather History Date:

Thursday, June 6, 2013

  Actual Average Record
Temperature  
Mean Temperature 58 °F -  
Max Temperature 69 °F 74 °F 91 °F (1953)
Min Temperature 48 °F 53 °F 38 °F (1964)
Degree Days  
Heating Degree Days 7    
Growing Degree Days 8 (Base 50)    
Moisture  
Dew Point 51 °F    
Average Humidity 77    
Maximum Humidity 94    
Minimum Humidity 51    
Precipitation  
Precipitation 0.16 in - - ()
Sea Level Pressure  
Sea Level Pressure 30.13 in    
Wind  
Wind Speed 4 mph (ESE)    
Max Wind Speed 14 mph    
Max Gust Speed 22 mph    
Visibility 9 miles    
Events Rain    
Averages and records for this station are not official NWS values.
T = Trace of Precipitation, MM = Missing Value Source: NWS Daily Summary

Daily Weather History Graph

Daily Weather History Graph

Search for Another Location

Airport or City:

Trip Planner

Search our weather history database for the weather conditions in past years. The results will help you decide how hot, cold, wet, or windy it might be!

Date:

Astronomy

Jun. 06, 2013 Rise Set
Actual Time 5:21 AM EDT 8:24 PM EDT
Civil Twilight 4:47 AM EDT 8:58 PM EDT
Nautical Twilight 4:04 AM EDT 9:40 PM EDT
Astronomical Twilight 3:14 AM EDT 10:31 PM EDT
Moon 4:02 AM EDT (6/6) 6:42 PM EDT (6/6)
Length of Visible Light 16h 10m
Length of Day
15h 03m
Waning Crescent, 4% of the Moon is Illuminated
Jun 6
Waning Crescent
Jun 8
New
Jun 16
First Quarter
Jun 23
Full
Jun 30
Last Quarter

Hourly Weather History & Observations

Time (EDT) Temp. Dew Point Humidity Pressure Visibility Wind Dir Wind Speed Gust Speed Precip Events Conditions
12:53 AM 50.0 °F 46.0 °F 86% 30.16 in 10.0 mi Calm Calm - N/A   Clear
1:53 AM 50.0 °F 46.0 °F 86% 30.15 in 10.0 mi Calm Calm - N/A   Clear
2:53 AM 48.0 °F 45.0 °F 89% 30.17 in 10.0 mi Calm Calm - N/A   Partly Cloudy
3:06 AM 48.2 °F 46.4 °F 93% 30.18 in 10.0 mi Calm Calm - N/A   Mostly Cloudy
3:53 AM 48.9 °F 46.0 °F 90% 30.16 in 10.0 mi Calm Calm - N/A   Mostly Cloudy
4:53 AM 51.1 °F 48.0 °F 89% 30.16 in 10.0 mi Calm Calm - N/A   Overcast
5:29 AM 53.6 °F 50.0 °F 88% 30.16 in 3.0 mi Calm Calm - N/A   Overcast
5:53 AM 53.1 °F 50.0 °F 89% 30.16 in 6.0 mi NE 3.5 mph - N/A   Overcast
6:10 AM 53.6 °F 51.8 °F 94% 30.17 in 7.0 mi Calm Calm - N/A   Overcast
6:33 AM 55.4 °F 51.8 °F 88% 30.17 in 6.0 mi NNE 4.6 mph - N/A   Overcast
6:53 AM 55.0 °F 51.1 °F 86% 30.17 in 5.0 mi NNE 4.6 mph - N/A   Overcast
7:53 AM 57.9 °F 53.1 °F 84% 30.17 in 6.0 mi Variable 4.6 mph - N/A   Haze
8:53 AM 62.1 °F 53.1 °F 72% 30.16 in 9.0 mi ESE 5.8 mph - N/A   Scattered Clouds
9:53 AM 66.0 °F 52.0 °F 60% 30.14 in 10.0 mi SSE 8.1 mph - N/A   Clear
10:53 AM 66.9 °F 53.1 °F 61% 30.14 in 10.0 mi SE 9.2 mph 17.3 mph N/A   Partly Cloudy
11:53 AM 68.0 °F 53.1 °F 59% 30.14 in 10.0 mi SSE 10.4 mph 18.4 mph N/A   Scattered Clouds
12:53 PM 66.9 °F 52.0 °F 59% 30.12 in 10.0 mi SSE 11.5 mph - N/A   Clear
1:53 PM 66.0 °F 51.1 °F 59% 30.12 in 10.0 mi SE 13.8 mph 21.9 mph N/A   Clear
2:53 PM 66.9 °F 48.0 °F 51% 30.11 in 10.0 mi SE 13.8 mph 21.9 mph N/A   Partly Cloudy
3:53 PM 66.0 °F 48.0 °F 52% 30.10 in 10.0 mi SE 8.1 mph - N/A   Clear
4:53 PM 64.9 °F 48.0 °F 54% 30.09 in 10.0 mi ESE 10.4 mph - N/A   Mostly Cloudy
5:53 PM 64.0 °F 48.9 °F 58% 30.10 in 10.0 mi SSE 4.6 mph - 0.00 in Rain Light Rain
6:53 PM 59.0 °F 53.1 °F 81% 30.09 in 7.0 mi ESE 6.9 mph - 0.04 in Rain Light Rain
7:53 PM 59.0 °F 55.0 °F 87% 30.08 in 10.0 mi ESE 8.1 mph - 0.02 in Rain Light Rain
8:53 PM 59.0 °F 55.0 °F 87% 30.07 in 10.0 mi ESE 9.2 mph - 0.02 in Rain Light Rain
9:53 PM 59.0 °F 55.0 °F 87% 30.08 in 10.0 mi SE 8.1 mph - 0.01 in Rain Light Rain
10:53 PM 57.9 °F 54.0 °F 87% 30.06 in 7.0 mi ESE 9.2 mph - 0.04 in Rain Light Rain
11:53 PM 57.9 °F 55.0 °F 90% 30.06 in 10.0 mi ESE 5.8 mph - 0.03 in Rain Light Rain